Iron Mountain, MI

2:09 PM CDT on September 22, 2017 (GMT -0500)
Ford

Weather History for KIMT - November, 2013

Change the Weather History Date:

Monday, November 4, 2013

  Actual Average Record
Temperature  
Mean Temperature 45 °F -  
Max Temperature 48 °F 44 °F 72 °F (2008)
Min Temperature 42 °F 27 °F 12 °F (1951)
Degree Days  
Heating Degree Days 20    
Moisture  
Dew Point 39 °F    
Average Humidity 79    
Maximum Humidity 93    
Minimum Humidity 66    
Precipitation  
Precipitation 0.00 in - - ()
Sea Level Pressure  
Sea Level Pressure 30.08 in    
Wind  
Wind Speed 13 mph (SSE)    
Max Wind Speed 17 mph    
Max Gust Speed 33 mph    
Visibility 8 miles    
Events Rain    
Averages and records for this station are not official NWS values.
T = Trace of Precipitation, MM = Missing Value Source: NWS Daily Summary

Daily Weather History Graph

Daily Weather History Graph

Search for Another Location

Airport or City:

Trip Planner

Search our weather history database for the weather conditions in past years. The results will help you decide how hot, cold, wet, or windy it might be!

Date:

Astronomy

Nov. 04, 2013 Rise Set
Actual Time 6:37 AM CST 4:34 PM CST
Civil Twilight 6:05 AM CST 5:05 PM CST
Nautical Twilight 5:30 AM CST 5:40 PM CST
Astronomical Twilight 4:55 AM CST 6:15 PM CST
Moon 7:50 AM CST (11/4) 5:34 PM CST (11/4)
Length of Visible Light 10h 59m
Length of Day
9h 56m
New Moon, 2% of the Moon is Illuminated
Nov 4
New Moon
Nov 9
First Quarter
Nov 17
Full
Nov 25
Last Quarter
Dec 2
New

Hourly Weather History & Observations

Time (CST) Temp. Windchill Dew Point Humidity Pressure Visibility Wind Dir Wind Speed Gust Speed Precip Events Conditions
12:54 AM 42.1 °F 35.7 °F 36.0 °F 79% 30.24 in 10.0 mi SE 11.5 mph - N/A   Overcast
1:54 AM 43.0 °F 36.4 °F 37.0 °F 80% 30.23 in 10.0 mi SSE 12.7 mph 20.7 mph N/A   Overcast
2:54 AM 44.1 °F 37.4 °F 37.0 °F 76% 30.21 in 10.0 mi SSE 13.8 mph 23.0 mph N/A   Overcast
3:54 AM 44.1 °F 37.4 °F 37.0 °F 76% 30.20 in 10.0 mi SSE 13.8 mph 24.2 mph N/A   Overcast
4:54 AM 44.1 °F 37.1 °F 37.9 °F 79% 30.20 in 10.0 mi SSE 15.0 mph 24.2 mph N/A   Overcast
5:54 AM 44.1 °F 37.7 °F 37.9 °F 79% 30.17 in 10.0 mi SSE 12.7 mph 24.2 mph N/A   Overcast
6:54 AM 44.1 °F 36.8 °F 37.0 °F 76% 30.16 in 10.0 mi SSE 16.1 mph 24.2 mph N/A   Overcast
7:54 AM 45.0 °F 37.9 °F 37.0 °F 74% 30.15 in 10.0 mi SSE 16.1 mph 24.2 mph N/A   Overcast
8:54 AM 46.0 °F 39.9 °F 37.9 °F 73% 30.15 in 10.0 mi SSE 13.8 mph 25.3 mph N/A   Overcast
9:54 AM 48.0 °F - 37.9 °F 68% 30.13 in 10.0 mi SSE 17.3 mph 27.6 mph N/A   Overcast
10:54 AM 48.0 °F - 37.9 °F 68% 30.11 in 10.0 mi SSE 15.0 mph 27.6 mph N/A   Overcast
11:54 AM 48.0 °F - 37.9 °F 68% 30.07 in 10.0 mi SSE 17.3 mph - N/A   Overcast
12:37 PM 48.2 °F - 37.4 °F 66% 30.01 in 10.0 mi SSE 12.7 mph 25.3 mph N/A   Overcast
12:54 PM 48.0 °F - 37.9 °F 68% 30.02 in 10.0 mi SSE 16.1 mph 25.3 mph N/A   Overcast
1:06 PM 48.2 °F - 39.2 °F 71% 29.98 in 10.0 mi SSE 17.3 mph 29.9 mph N/A   Overcast
1:18 PM 48.2 °F - 39.2 °F 71% 29.99 in 10.0 mi SSE 16.1 mph 27.6 mph N/A   Overcast
1:54 PM 48.0 °F - 39.0 °F 71% 30.00 in 10.0 mi SSE 16.1 mph 28.8 mph N/A   Mostly Cloudy
2:54 PM 48.0 °F - 37.9 °F 68% 30.00 in 10.0 mi SSE 17.3 mph 33.4 mph N/A   Overcast
3:54 PM 46.9 °F - 37.9 °F 71% 30.00 in 10.0 mi SSE 15.0 mph 24.2 mph N/A   Overcast
4:01 PM 46.4 °F 40.4 °F 37.4 °F 71% 29.97 in 10.0 mi SSE 13.8 mph 24.2 mph N/A   Overcast
4:54 PM 45.0 °F 40.1 °F 39.9 °F 82% 30.01 in 10.0 mi SSE 9.2 mph 20.7 mph 0.00 in Rain Light Rain
5:54 PM 45.0 °F 38.2 °F 39.9 °F 82% 30.03 in 10.0 mi SSE 15.0 mph 21.9 mph 0.00 in Rain Light Rain
6:52 PM 44.6 °F 37.8 °F 39.2 °F 81% 30.02 in 6.0 mi South 15.0 mph 21.9 mph 0.00 in   Haze
6:54 PM 45.0 °F 39.3 °F 39.9 °F 82% 30.05 in 6.0 mi SSE 11.5 mph 21.9 mph 0.00 in   Haze
7:08 PM 44.6 °F 38.8 °F 41.0 °F 87% 30.02 in 7.0 mi SSE 11.5 mph - 0.00 in Rain Light Rain
7:34 PM 44.6 °F 39.2 °F 41.0 °F 87% 30.02 in 5.0 mi South 10.4 mph - 0.00 in   Overcast
7:54 PM 44.1 °F 37.7 °F 41.0 °F 89% 30.05 in 5.0 mi South 12.7 mph 19.6 mph 0.00 in   Overcast
8:36 PM 44.6 °F 39.7 °F 42.8 °F 93% 30.02 in 4.0 mi South 9.2 mph - N/A   Overcast
8:54 PM 45.0 °F 40.1 °F 42.1 °F 90% 30.05 in 5.0 mi South 9.2 mph - N/A   Overcast
9:54 PM 45.0 °F 40.1 °F 42.1 °F 90% 30.08 in 4.0 mi South 9.2 mph - N/A   Overcast
10:08 PM 44.6 °F 39.7 °F 42.8 °F 93% 30.05 in 4.0 mi South 9.2 mph - N/A   Overcast
10:16 PM 44.6 °F 40.2 °F 42.8 °F 93% 30.05 in 5.0 mi South 8.1 mph - N/A   Overcast
10:54 PM 45.0 °F 41.2 °F 43.0 °F 93% 30.09 in 5.0 mi South 6.9 mph - N/A   Overcast
11:39 PM 44.6 °F 40.7 °F 42.8 °F 93% 30.07 in 6.0 mi SSW 6.9 mph - N/A   Overcast
11:54 PM 45.0 °F 41.8 °F 43.0 °F 93% 30.10 in 6.0 mi South 5.8 mph - N/A   Overcast